EW1898 Weather Reports


time (UTC)temp
C
wind
direction
speed
KPH
gust
KPH
rain 1hr
cm
rain 24hr
cm
rain mn
cm
humidity
%
barometer
mb
20260906223103 19 279 1.6 8.0 0.00 0.28 0.28 62 1014.3
20260906221552 19 284 0.0 4.8 0.00 0.28 0.28 69 1014.2
20260906220050 19 293 0.0 4.8 0.00 0.28 0.28 67 1014.2
20260906214552 19 276 0.0 0.0 0.00 0.28 0.28 66 1014.2
20260906213049 20 276 0.0 0.0 0.00 0.28 0.28 65 1014.2
20260906211550 20 257 0.0 4.8 0.00 0.28 0.28 62 1014.0
20260906210058 20 275 0.0 6.4 0.00 0.28 0.28 65 1013.7
20260906204556 20 267 0.0 1.6 0.00 0.28 0.28 67 1013.9
20260906203046 20 269 0.0 1.6 0.00 0.28 0.28 67 1013.8
20260906201549 20 269 0.0 3.2 0.00 0.28 0.28 66 1013.8
20260906200044 20 284 1.6 6.4 0.00 0.28 0.28 63 1013.6
20260906194601 20 285 4.8 11.3 0.00 0.28 0.28 63 1013.5
20260906193041 20 298 4.8 11.3 0.00 0.28 0.28 65 1013.6
20260906191539 19 291 3.2 8.0 0.00 0.28 0.28 66 1013.8
20260906190039 20 291 4.8 12.9 0.00 0.28 0.28 65 1013.8
20260906184538 19 269 4.8 14.5 0.00 0.28 0.28 70 1013.9
20260906183053 19 305 1.6 6.4 0.00 0.28 0.28 71 1014.1
20260906181540 19 288 3.2 6.4 0.00 0.28 0.28 70 1014.2
20260906180040 18 278 1.6 4.8 0.00 0.28 0.28 75 1014.3
20260906174528 18 293 1.6 8.0 0.00 0.28 0.28 76 1014.4
20260906173027 18 292 0.0 9.7 0.00 0.28 0.28 77 1014.6
20260906171524 17 167 0.0 8.0 0.00 0.28 0.28 80 1014.8
20260906170020 16 295 0.0 9.7 0.00 0.28 0.28 85 1014.9
20260906164519 16 302 0.0 1.6 0.00 0.28 0.28 89 1015.2
20260906163018 16 295 0.0 6.4 0.00 0.28 0.28 88 1015.3
20260906161535 17 287 0.0 1.6 0.00 0.28 0.28 87 1015.2
20260906160016 17 287 0.0 3.2 0.00 0.28 0.28 87 1015.3
20260906154517 17 302 0.0 6.4 0.00 0.28 0.28 85 1015.3
20260906153013 16 287 1.6 6.4 0.00 0.28 0.28 90 1015.4
20260906151515 16 291 0.0 4.8 0.00 0.28 0.28 92 1015.5
20260906150012 16 290 0.0 6.4 0.00 0.28 0.28 91 1015.7
20260906144515 16 287 1.6 4.8 0.00 0.28 0.28 90 1015.7
20260906143008 15 301 0.0 3.2 0.00 0.28 0.28 93 1015.7
20260906141510 15 306 0.0 1.6 0.00 0.28 0.28 93 1015.8
20260906140010 15 147 0.0 1.6 0.00 0.28 0.28 92 1015.7
20260906134506 16 121 0.0 3.2 0.00 0.28 0.28 91 1015.7
20260906133008 16 240 0.0 3.2 0.00 0.28 0.28 95 1015.5
20260906131503 15 170 0.0 3.2 0.00 0.28 0.28 97 1015.6
20260906130001 14 294 0.0 3.2 0.00 0.28 0.28 97 1015.6
20260906124501 14 294 0.0 1.6 0.00 0.28 0.28 97 1015.7
20260906123108 14 294 0.0 1.6 0.00 0.28 0.28 98 1015.7
20260906121609 14 293 0.0 1.6 0.00 0.28 0.28 98 1015.5
20260906120104 14 293 0.0 0.0 0.00 0.28 0.28 99 1015.4
20260906114557 13 293 0.0 1.6 0.00 0.28 0.28 99 1015.2
20260906113055 13 293 0.0 1.6 0.00 0.28 0.28 99 1015.1
20260906111553 13 293 0.0 1.6 0.00 0.28 0.28 98 1014.8
20260906110050 13 293 0.0 1.6 0.00 0.28 0.28 98 1014.7
20260906104550 13 160 0.0 0.0 0.03 0.28 0.28 98 1014.6
20260906103049 13 160 0.0 1.6 0.03 0.28 0.28 98 1014.4
20260906101543 13 160 0.0 0.0 0.03 0.28 0.28 98 1014.1
20260906100041 13 160 0.0 0.0 0.03 0.28 0.28 98 1014.2
20260906094545 13 159 0.0 1.6 0.03 0.25 0.25 98 1014.0
20260906093038 13 146 0.0 1.6 0.08 0.25 0.25 98 1014.0
20260906091537 14 146 0.0 1.6 0.15 0.25 0.25 98 1013.8
20260906090048 14 181 0.0 0.0 0.20 0.25 0.25 98 1013.7
20260906084535 14 181 0.0 1.6 0.18 0.23 0.23 98 1013.7
20260906083031 14 161 0.0 3.2 0.13 0.18 0.18 98 1013.6
20260906081530 15 136 0.0 3.2 0.05 0.10 0.10 98 1013.7
20260906080036 15 292 0.0 1.6 0.03 0.05 0.05 98 1013.6
20260906074524 15 293 0.0 0.0 0.03 0.05 0.05 98 1013.1
20260906073022 15 293 0.0 0.0 0.03 0.05 0.05 98 1013.0
20260906071526 15 293 0.0 0.0 0.03 0.05 0.05 98 1013.0
20260906070021 15 293 0.0 0.0 0.00 0.03 0.03 98 1013.0
20260906064520 15 293 0.0 1.6 0.00 0.03 0.03 98 1013.0
20260906063020 15 293 0.0 1.6 0.00 0.03 0.03 98 1012.9
20260906061519 15 293 0.0 1.6 0.00 0.03 0.03 98 1013.0
20260906060023 15 293 0.0 3.2 0.03 0.03 0.03 98 1013.0
20260906054517 15 292 0.0 4.8 0.03 0.03 0.03 98 1013.0
20260906053017 15 292 0.0 1.6 0.03 0.03 0.03 98 1013.0
20260906051517 15 292 0.0 4.8 0.03 0.03 0.03 98 1013.1
20260906050013 15 288 0.0 1.6 0.00 0.00 0.00 98 1013.1
20260906044516 15 287 0.0 1.6 0.00 0.00 0.00 98 1013.2
20260906043025 15 287 0.0 3.2 0.00 0.00 0.00 97 1013.1
20260906041509 16 294 0.0 3.2 0.00 0.00 0.00 97 1013.2
20260906040007 16 306 0.0 1.6 0.00 0.00 0.00 97 1013.1
20260906034506 16 130 0.0 0.0 0.00 0.00 0.00 97 1013.0
20260906033006 16 130 0.0 0.0 0.00 0.00 0.00 97 1012.9
20260906031510 16 130 0.0 0.0 0.00 0.00 0.00 97 1012.7
20260906030005 16 130 0.0 0.0 0.00 0.00 0.00 96 1012.9
20260906024504 16 130 0.0 0.0 0.00 0.00 0.00 96 1012.9
20260906023004 16 130 0.0 0.0 0.00 0.00 0.00 96 1012.7
20260906021505 16 130 0.0 0.0 0.00 0.00 0.00 96 1012.7
20260906020002 16 130 0.0 0.0 0.00 0.00 0.00 95 1012.7
20260906014504 16 130 0.0 0.0 0.00 0.00 0.00 95 1012.8
20260906013002 16 130 0.0 0.0 0.00 0.00 0.00 94 1012.9
20260906011601 16 130 0.0 0.0 0.00 0.00 0.00 94 1013.0
20260906010140 16 130 0.0 0.0 0.00 0.00 0.00 94 1012.8
20260906004614 16 130 0.0 0.0 0.00 0.00 0.00 93 1012.6
20260906003055 17 130 0.0 0.0 0.00 0.00 0.00 92 1012.5
20260906001603 17 130 0.0 0.0 0.00 0.00 0.00 90 1012.4
20260906000053 17 130 0.0 0.0 0.00 0.00 0.00 90 1012.5
20260905234552 17 130 0.0 0.0 0.00 0.00 0.00 89 1012.3
20260905233051 17 130 0.0 0.0 0.00 0.00 0.00 88 1012.2
20260905231550 17 130 0.0 0.0 0.00 0.00 0.00 87 1012.1
20260905230047 17 130 0.0 1.6 0.00 0.00 0.00 86 1011.8
20260905224547 17 130 0.0 1.6 0.00 0.00 0.00 85 1011.8